Previsão horária em Abdrahimovo

Hoje, 14 Abril, Quarta-feira

Tempo Temperatura Precipitação Vento Pressão Humidade
00:00 +6°C° 0 mm 2 m/s 758 mmHg 99%
01:00 +6°C° 0 mm 2 m/s 757 mmHg 99%
02:00 +6°C° 0 mm 2 m/s 758 mmHg 99%
03:00 +6°C° 0 mm 2 m/s 758 mmHg 99%
04:00 +6°C° 0 mm 2 m/s 758 mmHg 99%
05:00 +6°C° 0 mm 2 m/s 758 mmHg 99%
06:00 +6°C° 0 mm 2 m/s 757 mmHg 98%
07:00 +6°C° 0 mm 2 m/s 757 mmHg 98%
08:00 +7°C° 0 mm 2 m/s 757 mmHg 96%
09:00 +8°C° 0 mm 2 m/s 757 mmHg 93%
10:00 +9°C° 0 mm 2 m/s 757 mmHg 91%
11:00 +12°C° 0 mm 2 m/s 756 mmHg 84%
12:00 +14°C° 0 mm 2 m/s 756 mmHg 78%
13:00 +15°C° 0 mm 2 m/s 755 mmHg 71%
14:00 +16°C° 0 mm 1 m/s 755 mmHg 69%
15:00 +18°C° 0 mm 1 m/s 755 mmHg 66%
16:00 +18°C° 0 mm 1 m/s 754 mmHg 63%
17:00 +16°C° 0 mm 1 m/s 754 mmHg 68%
18:00 +15°C° 0 mm 1 m/s 753 mmHg 73%
19:00 +13°C° 0 mm 0 m/s 753 mmHg 78%
20:00 +12°C° 0 mm 0 m/s 753 mmHg 80%
21:00 +13°C° 0 mm 1 m/s 753 mmHg 81%
22:00 +12°C° 0 mm 1 m/s 753 mmHg 83%
23:00 +12°C° 0 mm 1 m/s 752 mmHg 84%

Amanhã, 15 Abril, Quinta-feira

Tempo Temperatura Precipitação Vento Pressão Humidade
00:00 +11°C° 0 mm 1 m/s 752 mmHg 85%
01:00 +11°C° 0 mm 1 m/s 752 mmHg 86%
02:00 +9°C° 0 mm 2 m/s 752 mmHg 86%
03:00 +8°C° 0 mm 2 m/s 752 mmHg 88%
04:00 +9°C° 0 mm 1 m/s 752 mmHg 89%
05:00 +9°C° 0 mm 1 m/s 752 mmHg 89%
06:00 +9°C° 0 mm 2 m/s 752 mmHg 88%
07:00 +9°C° 0 mm 2 m/s 751 mmHg 88%
08:00 +12°C° 0 mm 2 m/s 751 mmHg 79%
09:00 +13°C° 0 mm 2 m/s 751 mmHg 69%
10:00 +14°C° 0 mm 3 m/s 750 mmHg 60%
11:00 +16°C° 0 mm 3 m/s 750 mmHg 53%
12:00 +17°C° 0 mm 3 m/s 750 mmHg 46%
13:00 +18°C° 0 mm 4 m/s 749 mmHg 39%
14:00 +12°C° 0 mm 3 m/s 750 mmHg 74%
15:00 +14°C° 0 mm 3 m/s 749 mmHg 60%
16:00 +18°C° 0 mm 4 m/s 748 mmHg 46%
17:00 +17°C° 0 mm 4 m/s 748 mmHg 53%
18:00 +14°C° 0 mm 3 m/s 747 mmHg 60%
19:00 +14°C° 0 mm 2 m/s 747 mmHg 67%
20:00 +13°C° 0 mm 2 m/s 747 mmHg 69%
21:00 +12°C° 0 mm 2 m/s 747 mmHg 71%
22:00 +10°C° 0 mm 2 m/s 746 mmHg 74%
23:00 +10°C° 0 mm 2 m/s 746 mmHg 75%

Depois de amanhã, 16 Abril, Sexta-feira

Tempo Temperatura Precipitação Vento Pressão Humidade
00:00 +9°C° 0 mm 2 m/s 746 mmHg 75%
01:00 +9°C° 0 mm 2 m/s 746 mmHg 76%
02:00 +9°C° 0 mm 2 m/s 746 mmHg 78%
03:00 +9°C° 0 mm 1 m/s 746 mmHg 79%
04:00 +9°C° 0 mm 1 m/s 746 mmHg 80%
05:00 +8°C° 0 mm 2 m/s 746 mmHg 82%
06:00 +8°C° 0 mm 2 m/s 746 mmHg 84%
07:00 +8°C° 0 mm 2 m/s 746 mmHg 86%
08:00 +8°C° 0 mm 3 m/s 746 mmHg 85%
09:00 +9°C° 0 mm 3 m/s 747 mmHg 84%
10:00 +8°C° 0 mm 4 m/s 747 mmHg 83%
11:00 +7°C° 0.1 mm 5 m/s 747 mmHg 84%
12:00 +6°C° 0.1 mm 5 m/s 748 mmHg 86%
13:00 +4°C° 0.1 mm 6 m/s 748 mmHg 87%
14:00 +3°C° 0.1 mm 5 m/s 748 mmHg 90%
15:00 +3°C° 0.1 mm 5 m/s 749 mmHg 92%
16:00 +3°C° 0.1 mm 4 m/s 749 mmHg 95%
17:00 +3°C° 0 mm 4 m/s 749 mmHg 94%
18:00 +3°C° 0 mm 3 m/s 749 mmHg 93%
19:00 +3°C° 0 mm 3 m/s 749 mmHg 92%
20:00 +3°C° 0 mm 3 m/s 749 mmHg 92%
21:00 +3°C° 0 mm 2 m/s 749 mmHg 92%
22:00 +3°C° 0 mm 2 m/s 749 mmHg 93%
23:00 +2°C° 0 mm 2 m/s 749 mmHg 91%

17 Abril, Sábado

Tempo Temperatura Precipitação Vento Pressão Humidade
00:00 +2°C° 0 mm 2 m/s 749 mmHg 90%
01:00 +2°C° 0 mm 1 m/s 749 mmHg 89%
02:00 +2°C° 0 mm 1 m/s 749 mmHg 88%
03:00 +2°C° 0 mm 1 m/s 749 mmHg 86%
04:00 +2°C° 0 mm 1 m/s 749 mmHg 85%
05:00 +3°C° 0 mm 1 m/s 749 mmHg 80%
06:00 +3°C° 0 mm 1 m/s 749 mmHg 76%
07:00 +4°C° 0 mm 1 m/s 749 mmHg 71%
08:00 +4°C° 0 mm 2 m/s 749 mmHg 65%
09:00 +5°C° 0 mm 3 m/s 749 mmHg 59%
10:00 +6°C° 0 mm 4 m/s 749 mmHg 53%
11:00 +6°C° 0 mm 4 m/s 749 mmHg 49%
12:00 +7°C° 0 mm 5 m/s 748 mmHg 45%
13:00 +8°C° 0 mm 5 m/s 748 mmHg 41%
14:00 +7°C° 0 mm 5 m/s 748 mmHg 43%
15:00 +7°C° 0 mm 6 m/s 748 mmHg 44%
16:00 +7°C° 0 mm 6 m/s 748 mmHg 46%
17:00 +6°C° 0 mm 5 m/s 748 mmHg 49%
18:00 +5°C° 0 mm 4 m/s 748 mmHg 52%
19:00 +4°C° 0 mm 4 m/s 748 mmHg 55%
20:00 +3°C° 0 mm 3 m/s 748 mmHg 59%
21:00 +3°C° 0 mm 2 m/s 748 mmHg 63%
22:00 +3°C° 0 mm 2 m/s 748 mmHg 66%
23:00 +2°C° 0 mm 2 m/s 748 mmHg 66%

18 Abril, Domingo

Tempo Temperatura Precipitação Vento Pressão Humidade
00:00 +2°C° 0 mm 2 m/s 748 mmHg 66%
01:00 +1°C° 0 mm 2 m/s 748 mmHg 66%
02:00 +1°C° 0 mm 2 m/s 748 mmHg 65%
03:00 +1°C° 0 mm 2 m/s 748 mmHg 64%
04:00 +1°C° 0 mm 2 m/s 748 mmHg 63%
05:00 0°C° 0 mm 3 m/s 748 mmHg 64%
06:00 0°C° 0 mm 4 m/s 747 mmHg 66%
07:00 0°C° 0 mm 5 m/s 747 mmHg 67%
08:00 0°C° 0.1 mm 5 m/s 748 mmHg 65%
09:00 +1°C° 0.1 mm 6 m/s 748 mmHg 62%
10:00 0°C° 0.1 mm 7 m/s 748 mmHg 60%
11:00 0°C° 0 mm 7 m/s 748 mmHg 52%
12:00 +2°C° 0 mm 7 m/s 748 mmHg 44%
13:00 +1°C° 0 mm 8 m/s 749 mmHg 37%
14:00 +2°C° 0.1 mm 7 m/s 749 mmHg 42%
15:00 +2°C° 0.1 mm 7 m/s 750 mmHg 46%
16:00 0°C° 0.1 mm 7 m/s 750 mmHg 51%
17:00 +1°C° 0.1 mm 6 m/s 751 mmHg 51%
18:00 0°C° 0.1 mm 5 m/s 752 mmHg 52%
19:00 0°C° 0.1 mm 4 m/s 753 mmHg 52%
20:00 0°C° 0 mm 3 m/s 753 mmHg 52%
21:00 -1°C° 0 mm 3 m/s 754 mmHg 52%
22:00 -2°C° 0 mm 3 m/s 754 mmHg 53%
23:00 -2°C° 0 mm 2 m/s 755 mmHg 52%

19 Abril, Segunda-feira

Tempo Temperatura Precipitação Vento Pressão Humidade
00:00 -2°C° 0 mm 2 m/s 755 mmHg 51%
01:00 0°C° 0 mm 1 m/s 756 mmHg 51%
02:00 -1°C° 0 mm 1 m/s 757 mmHg 50%
03:00 -1°C° 0 mm 1 m/s 757 mmHg 48%
04:00 -1°C° 0 mm 1 m/s 758 mmHg 47%
05:00 0°C° 0 mm 1 m/s 758 mmHg 43%
06:00 0°C° 0 mm 1 m/s 758 mmHg 38%
07:00 -1°C° 0 mm 2 m/s 759 mmHg 34%
08:00 -1°C° 0 mm 2 m/s 759 mmHg 31%
09:00 0°C° 0 mm 3 m/s 759 mmHg 28%
10:00 +1°C° 0 mm 3 m/s 759 mmHg 25%
11:00 +2°C° 0 mm 3 m/s 759 mmHg 25%
12:00 +2°C° 0 mm 3 m/s 759 mmHg 25%
13:00 +3°C° 0 mm 3 m/s 759 mmHg 26%
14:00 +3°C° 0 mm 3 m/s 759 mmHg 26%
15:00 +3°C° 0 mm 3 m/s 759 mmHg 27%
16:00 +3°C° 0 mm 3 m/s 759 mmHg 27%
17:00 +4°C° 0 mm 2 m/s 759 mmHg 31%
18:00 +4°C° 0 mm 1 m/s 759 mmHg 36%
19:00 +3°C° 0 mm 1 m/s 759 mmHg 40%
20:00 +3°C° 0 mm 1 m/s 759 mmHg 42%
21:00 +2°C° 0 mm 1 m/s 759 mmHg 43%
22:00 +2°C° 0 mm 1 m/s 759 mmHg 45%
23:00 +1°C° 0 mm 1 m/s 759 mmHg 47%
Mostrar mais

Necessitamos do seu Consentimento

A Meteoprog e os seus Fornecedores de Serviços podem armazenar e aceder a dados pessoais como cookies, identificadores do dispositivo ou outras tecnologias semelhantes existentes no seu dispositivo e processar estes dados para personalizar conteúdos e anúncios, assim como funcionalidades nas redes sociais e análise de tráfego.

  • Armazenar e/ou aceder a informações no seu dispositivo

    Os cookies, identificadores do dispositivo ou outras informações podem ser armazenados ou acedidos no seu dispositivo, para os fins acima indicados.

  • Anúncios e conteúdos personalizados, medição de anúncios e conteúdos, dados sobre o público-alvo e desenvolvimento de produtos

    Os anúncios e os conteúdos podem ser personalizados com base num perfil. Podem ser adicionados dados adicionais para uma maior personalização dos anúncios e dos conteúdos. A eficácia dos anúncios e dos conteúdos pode ser medida. Podem ser obtidas informações sobre o público que visualizou os anúncios e os conteúdos. Estes dados podem ser usados para desenvolver ou melhorar sistemas, softwares ou a experiência do utilizador.

Ao clicar em "Eu concordo”, permitirá o uso de cookies, identificadores do dispositivo e web beacons mencionados ou outras tecnologias semelhantes. As configurações do navegador do seu dispositivo podem ser alteradas.

Para certos fins, podem ser invocados interesses legítimos ao invés de consentimento. Pode ler mais informação sobre este assunto na nossa Política de Privacidade e Cookies.